sat.trackr.live / text

‹ back to catalog

SDA_1670

NORAD 65980 · 2025-230G

PAYLOAD ACTIVE UNKNOWN

§ Identity

Operator
Country
US
Launch date
2025-10-15
Launch site
AFWTR
Launch vehicle
Mass (kg)
RCS (m²)

External: N2YO · Heavens-Above · Gunter

§ Orbital elements

Epoch: 2026-05-24T22:37:59.918304Z

Period
104.27 min
Inclination
81.2998°
Eccentricity
0.0001055
Mean motion
13.80998910 rev/d
Perigee alt
959.6 km
Apogee alt
961.1 km
Semi-major
7,338.5 km
B*
2.4062e-5
RAAN
233.5242°
Arg perigee
122.7450°
Mean anomaly
237.3806°
Rev number
3,057

§ Raw data

SDA_16701 65980U 25230G   26144.94305461  .00000037  00000+0  24062-4 0  99962 65980  81.2998 233.5242 0001055 122.7450 237.3806 13.80998910 30572

JSON: /api/v1/satellites/65980 · /tle

For live sub-satellite position, see the globe view (requires WebGL).

§ Visibility from observer

Set your observer location to see the next 7 days of passes ≥ 10°. The values pass through the URL so the page stays shareable.

No JS? Fill the form by hand. The geolocation button needs JavaScript.